Simultaneous Nadir Overpasses (SNOs) Predictions

Prediction of SNOs between AURA and NPP Satellite Orbit:

Table of predicted SNOs for the next 14.0 days since TLE Epoch: 8/3/2018
Index Date (AURA) Time (AURA) Lat,Lon (AURA) SZA (AURA ) Date (NPP) Time (NPP) Lat,Lon (NPP) SZA (NPP ) Distance(km) Time Diff (sec)
1 08/05/2018 03:41:44 -79.38,-159.47 103.87 08/05/2018 03:41:36 -79.39,-159.33 103.89 3.16 8
2 08/05/2018 04:31:05 79.57, 9.46 75.86 08/05/2018 04:32:15 79.57, 9.42 75.82 0.82 70
3 08/07/2018 19:08:52 79.10, 146.99 77.24 08/07/2018 19:07:56 79.10, 146.89 77.30 2.41 56
4 08/07/2018 19:58:10 -79.46, -43.06 103.27 08/07/2018 19:58:31 -79.46, -42.99 103.30 1.38 21
5 08/10/2018 11:25:14 79.30, -95.88 77.70 08/10/2018 11:24:46 79.31, -95.79 77.70 1.84 28
6 08/10/2018 12:14:36 -79.50, 73.09 102.59 08/10/2018 12:15:26 -79.50, 73.07 102.62 0.54 50
7 08/13/2018 02:54:00 -74.52,-166.23 95.71 08/13/2018 02:52:46 -74.79,-167.64 95.51 50.58 74
8 08/13/2018 03:41:41 79.34, 20.26 78.41 08/13/2018 03:41:42 79.34, 20.24 78.41 0.41 1
9 08/15/2018 19:08:47 -79.19, -32.46 100.60 08/15/2018 19:07:59 -79.20, -32.36 100.58 2.16 48




NCC Satellite Simultaneous Nadir Overpasses (SNOs) Prediction Service
